Time,TemperatureF,DewpointF,PressureIn,WindDirection,WindDirectionDegrees,WindSpeedMPH,WindSpeedGustMPH,Humidity,HourlyPrecipIn,Conditions,Clouds,dailyrainin,SoftwareType,DateUTC
2013-01-21 00:02:00,13.0,4.0,-100.00,NNW,330,0.0,0.0,66,0.00,,,-99.99,,2013-01-21 07:02:00,
2013-01-21 00:11:00,13.0,4.0,-100.00,ESE,115,0.0,0.0,66,0.00,,,-99.99,,2013-01-21 07:11:00,
2013-01-21 00:22:00,13.0,4.0,-100.00,ESE,115,0.0,0.0,66,0.00,,,-99.99,,2013-01-21 07:22:00,
2013-01-21 00:32:00,12.0,4.0,-100.00,ESE,115,0.0,2.0,68,0.00,,,-99.99,,2013-01-21 07:32:00,
2013-01-21 00:42:00,12.0,4.0,-100.00,ESE,110,0.0,0.0,68,0.00,,,-99.99,,2013-01-21 07:42:00,
2013-01-21 00:52:00,12.0,4.0,-100.00,SE,145,0.0,0.0,68,0.00,,,-99.99,,2013-01-21 07:52:00,
2013-01-21 01:02:00,12.0,4.0,-100.00,SE,135,0.0,4.0,68,0.00,,,-99.99,,2013-01-21 08:02:00,
2013-01-21 01:12:00,12.0,4.0,-100.00,East,100,0.0,0.0,68,0.00,,,-99.99,,2013-01-21 08:12:00,
2013-01-21 01:22:00,12.0,4.0,-100.00,SE,130,0.0,0.0,68,0.00,,,-99.99,,2013-01-21 08:22:00,
2013-01-21 01:32:00,12.0,4.0,-100.00,SSW,210,0.0,3.0,69,0.00,,,-99.99,,2013-01-21 08:32:00,
2013-01-21 01:42:00,11.0,3.0,-100.00,SSW,200,0.0,0.0,69,0.00,,,-99.99,,2013-01-21 08:42:00,
2013-01-21 01:52:00,10.0,2.0,-100.00,SE,135,0.0,0.0,69,0.00,,,-99.99,,2013-01-21 08:52:00,
2013-01-21 02:02:00,10.0,2.0,-100.00,SE,135,4.0,9.0,69,0.00,,,-99.99,,2013-01-21 09:02:00,
2013-01-21 02:11:00,12.0,4.0,-100.00,SE,145,2.0,11.0,69,0.00,,,-99.99,,2013-01-21 09:11:00,
2013-01-21 02:22:00,11.0,3.0,-100.00,SSE,155,2.0,4.0,69,0.00,,,-99.99,,2013-01-21 09:22:00,
2013-01-21 02:32:00,9.0,1.0,-100.00,NNE,30,0.0,7.0,69,0.00,,,-99.99,,2013-01-21 09:32:00,
2013-01-21 02:42:00,10.0,2.0,-100.00,SE,135,3.0,6.0,69,0.00,,,-99.99,,2013-01-21 09:42:00,
2013-01-21 02:52:00,10.0,2.0,-100.00,East,85,2.0,6.0,70,0.00,,,-99.99,,2013-01-21 09:52:00,
2013-01-21 03:02:00,12.0,4.0,-100.00,SE,135,5.0,7.0,70,0.00,,,-99.99,,2013-01-21 10:02:00,
2013-01-21 03:12:00,11.0,3.0,-100.00,ESE,105,1.0,8.0,70,0.00,,,-99.99,,2013-01-21 10:12:00,
2013-01-21 03:22:00,11.0,3.0,-100.00,ENE,65,4.0,7.0,70,0.00,,,-99.99,,2013-01-21 10:22:00,
2013-01-21 03:32:00,12.0,4.0,-100.00,ESE,115,6.0,11.0,70,0.00,,,-99.99,,2013-01-21 10:32:00,
2013-01-21 03:42:00,12.0,4.0,-100.00,ESE,115,3.0,11.0,70,0.00,,,-99.99,,2013-01-21 10:42:00,
2013-01-21 03:52:00,12.0,4.0,-100.00,SE,135,10.0,13.0,69,0.00,,,-99.99,,2013-01-21 10:52:00,
2013-01-21 04:02:00,13.0,4.0,-100.00,SE,125,6.0,13.0,68,0.00,,,-99.99,,2013-01-21 11:02:00,
2013-01-21 04:12:00,11.0,3.0,-100.00,ESE,105,4.0,9.0,67,0.00,,,-99.99,,2013-01-21 11:12:00,
2013-01-21 04:22:00,10.0,2.0,-100.00,SE,145,0.0,4.0,67,0.00,,,-99.99,,2013-01-21 11:22:00,
2013-01-21 04:32:00,11.0,3.0,-100.00,SE,135,5.0,7.0,67,0.00,,,-99.99,,2013-01-21 11:32:00,
2013-01-21 04:42:00,11.0,2.0,-100.00,SE,140,2.0,6.0,67,0.00,,,-99.99,,2013-01-21 11:42:00,
2013-01-21 04:52:00,9.0,1.0,-100.00,SSW,210,0.0,1.0,67,0.00,,,-99.99,,2013-01-21 11:52:00,
2013-01-21 05:02:00,8.0,-1.0,-100.00,SE,140,2.0,4.0,67,0.00,,,-99.99,,2013-01-21 12:02:00,
2013-01-21 05:12:00,8.0,0.0,-100.00,SSE,160,4.0,6.0,68,0.00,,,-99.99,,2013-01-21 12:12:00,
2013-01-21 05:22:00,10.0,1.0,-100.00,East,100,3.0,7.0,68,0.00,,,-99.99,,2013-01-21 12:22:00,
2013-01-21 05:32:00,8.0,0.0,-100.00,North,0,0.0,4.0,68,0.00,,,-99.99,,2013-01-21 12:32:00,
2013-01-21 05:42:00,7.0,-1.0,-100.00,NNW,340,0.0,0.0,69,0.00,,,-99.99,,2013-01-21 12:42:00,
2013-01-21 05:52:00,8.0,0.0,-100.00,East,80,0.0,2.0,69,0.00,,,-99.99,,2013-01-21 12:52:00,
2013-01-21 06:02:00,7.0,-1.0,-100.00,SW,225,0.0,3.0,70,0.00,,,-99.99,,2013-01-21 13:02:00,
2013-01-21 06:12:00,7.0,-1.0,-100.00,ENE,65,2.0,6.0,70,0.00,,,-99.99,,2013-01-21 13:12:00,
2013-01-21 06:22:00,6.0,-1.0,-100.00,SSE,150,0.0,2.0,71,0.00,,,-99.99,,2013-01-21 13:22:00,
2013-01-21 06:32:00,6.0,-1.0,-100.00,East,95,0.0,2.0,71,0.00,,,-99.99,,2013-01-21 13:32:00,
2013-01-21 06:42:00,8.0,2.0,-100.00,SE,125,4.0,9.0,72,0.00,,,-99.99,,2013-01-21 13:42:00,
2013-01-21 06:53:00,10.0,3.0,-100.00,SE,145,7.0,10.0,72,0.00,,,-99.99,,2013-01-21 13:53:00,
2013-01-21 07:02:00,9.0,2.0,-100.00,ESE,115,6.0,10.0,72,0.00,,,-99.99,,2013-01-21 14:02:00,
2013-01-21 07:12:00,8.0,1.0,-100.00,South,180,2.0,6.0,72,0.00,,,-99.99,,2013-01-21 14:12:00,
2013-01-21 07:22:00,7.0,0.0,-100.00,SSW,210,0.0,11.0,72,0.00,,,-99.99,,2013-01-21 14:22:00,
2013-01-21 07:32:00,6.0,-1.0,-100.00,North,0,1.0,3.0,72,0.00,,,-99.99,,2013-01-21 14:32:00,
2013-01-21 07:43:00,7.0,0.0,-100.00,ENE,60,2.0,6.0,72,0.00,,,-99.99,,2013-01-21 14:43:00,
2013-01-21 07:52:00,7.0,1.0,-100.00,SE,135,4.0,7.0,72,0.00,,,-99.99,,2013-01-21 14:52:00,
2013-01-21 08:03:00,7.0,0.0,-100.00,ENE,75,2.0,7.0,73,0.00,,,-99.99,,2013-01-21 15:03:00,
2013-01-21 08:12:00,9.0,2.0,-100.00,SW,215,0.0,7.0,73,0.00,,,-99.99,,2013-01-21 15:12:00,
2013-01-21 08:22:00,10.0,3.0,-100.00,NW,305,0.0,3.0,73,0.00,,,-99.99,,2013-01-21 15:22:00,
2013-01-21 08:32:00,10.0,3.0,-100.00,WNW,285,1.0,4.0,73,0.00,,,-99.99,,2013-01-21 15:32:00,
2013-01-21 08:42:00,11.0,4.0,-100.00,East,85,3.0,6.0,72,0.00,,,-99.99,,2013-01-21 15:42:00,
2013-01-21 08:52:00,12.0,5.0,-100.00,SE,125,1.0,6.0,72,0.00,,,-99.99,,2013-01-21 15:52:00,
2013-01-21 09:03:00,15.0,7.0,-100.00,SW,220,1.0,10.0,71,0.00,,,-99.99,,2013-01-21 16:03:00,
2013-01-21 09:12:00,16.0,8.0,-100.00,SE,135,1.0,5.0,69,0.00,,,-99.99,,2013-01-21 16:12:00,
2013-01-21 09:22:00,16.0,7.0,-100.00,NW,310,1.0,3.0,66,0.00,,,-99.99,,2013-01-21 16:22:00,
2013-01-21 09:32:00,18.0,9.0,-100.00,WSW,250,0.0,0.0,65,0.00,,,-99.99,,2013-01-21 16:32:00,
2013-01-21 09:43:00,22.0,11.0,-100.00,WNW,300,0.0,0.0,63,0.00,,,-99.99,,2013-01-21 16:43:00,
2013-01-21 09:52:00,21.0,9.0,-100.00,North,5,0.0,0.0,59,0.00,,,-99.99,,2013-01-21 16:52:00,
2013-01-21 10:02:00,23.0,10.0,-100.00,SW,215,0.0,3.0,57,0.00,,,-99.99,,2013-01-21 17:02:00,
2013-01-21 10:12:00,24.0,10.0,-100.00,NW,310,1.0,3.0,54,0.00,,,-99.99,,2013-01-21 17:12:00,
2013-01-21 10:22:00,26.0,11.0,-100.00,WSW,250,0.0,1.0,52,0.00,,,-99.99,,2013-01-21 17:22:00,
2013-01-21 10:33:00,29.0,12.0,-100.00,West,265,0.0,0.0,49,0.00,,,-99.99,,2013-01-21 17:33:00,
2013-01-21 10:42:00,29.0,12.0,-100.00,West,270,0.0,0.0,46,0.00,,,-99.99,,2013-01-21 17:42:00,
2013-01-21 10:52:00,31.0,12.0,-100.00,West,265,0.0,2.0,44,0.00,,,-99.99,,2013-01-21 17:52:00,
2013-01-21 11:02:00,31.0,12.0,-100.00,WSW,255,0.0,0.0,43,0.00,,,-99.99,,2013-01-21 18:02:00,
2013-01-21 11:11:00,31.0,10.0,-100.00,North,5,0.0,3.0,41,0.00,,,-99.99,,2013-01-21 18:11:00,
2013-01-21 11:22:00,29.0,8.0,-100.00,NW,320,2.0,6.0,40,0.00,,,-99.99,,2013-01-21 18:22:00,
2013-01-21 11:33:00,33.0,12.0,-100.00,West,270,0.0,0.0,41,0.00,,,-99.99,,2013-01-21 18:33:00,
2013-01-21 11:42:00,34.0,12.0,-100.00,NNW,335,0.0,1.0,39,0.00,,,-99.99,,2013-01-21 18:42:00,
2013-01-21 11:52:00,34.0,11.0,-100.00,NNE,20,0.0,1.0,38,0.00,,,-99.99,,2013-01-21 18:52:00,
2013-01-21 12:02:00,35.0,12.0,-100.00,SW,235,0.0,0.0,37,0.00,,,-99.99,,2013-01-21 19:02:00,
2013-01-21 12:12:00,35.0,11.0,-100.00,SSW,200,0.0,0.0,36,0.00,,,-99.99,,2013-01-21 19:12:00,
2013-01-21 12:22:00,36.0,11.0,-100.00,NE,55,0.0,0.0,35,0.00,,,-99.99,,2013-01-21 19:22:00,
2013-01-21 12:32:00,34.0,10.0,-100.00,North,0,1.0,6.0,35,0.00,,,-99.99,,2013-01-21 19:32:00,
2013-01-21 12:42:00,36.0,11.0,-100.00,NE,40,0.0,2.0,35,0.00,,,-99.99,,2013-01-21 19:42:00,
2013-01-21 12:52:00,37.0,12.0,-100.00,NNW,330,0.0,1.0,34,0.00,,,-99.99,,2013-01-21 19:52:00,
2013-01-21 13:02:00,37.0,11.0,-100.00,NNW,330,1.0,5.0,34,0.00,,,-99.99,,2013-01-21 20:02:00,
2013-01-21 13:12:00,38.0,12.0,-100.00,NW,315,1.0,6.0,34,0.00,,,-99.99,,2013-01-21 20:12:00,
2013-01-21 13:22:00,38.0,12.0,-100.00,WNW,285,1.0,4.0,33,0.00,,,-99.99,,2013-01-21 20:22:00,
2013-01-21 13:32:00,39.0,13.0,-100.00,North,0,1.0,2.0,33,0.00,,,-99.99,,2013-01-21 20:32:00,
2013-01-21 13:42:00,39.0,12.0,-100.00,NW,315,1.0,4.0,33,0.00,,,-99.99,,2013-01-21 20:42:00,
2013-01-21 13:52:00,39.0,13.0,-100.00,WSW,250,0.0,4.0,33,0.00,,,-99.99,,2013-01-21 20:52:00,
2013-01-21 14:02:00,40.0,13.0,-100.00,WSW,250,0.0,0.0,33,0.00,,,-99.99,,2013-01-21 21:02:00,
2013-01-21 14:12:00,40.0,13.0,-100.00,WSW,240,0.0,3.0,32,0.00,,,-99.99,,2013-01-21 21:12:00,
2013-01-21 14:22:00,42.0,14.0,-100.00,SE,135,0.0,0.0,32,0.00,,,-99.99,,2013-01-21 21:22:00,
2013-01-21 14:32:00,42.0,15.0,-100.00,ENE,65,0.0,1.0,32,0.00,,,-99.99,,2013-01-21 21:32:00,
2013-01-21 14:42:00,42.0,14.0,-100.00,NE,50,0.0,3.0,31,0.00,,,-99.99,,2013-01-21 21:42:00,
2013-01-21 14:52:00,42.0,14.0,-100.00,West,260,1.0,3.0,31,0.00,,,-99.99,,2013-01-21 21:52:00,
2013-01-21 15:02:00,42.0,15.0,-100.00,SW,225,0.0,2.0,31,0.00,,,-99.99,,2013-01-21 22:02:00,
2013-01-21 15:12:00,42.0,15.0,-100.00,SW,225,0.0,2.0,31,0.00,,,-99.99,,2013-01-21 22:12:00,
2013-01-21 15:22:00,41.0,13.0,-100.00,ENE,60,0.0,4.0,31,0.00,,,-99.99,,2013-01-21 22:22:00,
2013-01-21 15:32:00,41.0,14.0,-100.00,SW,215,0.0,5.0,32,0.00,,,-99.99,,2013-01-21 22:32:00,
2013-01-21 15:42:00,41.0,13.0,-100.00,SSE,155,0.0,0.0,32,0.00,,,-99.99,,2013-01-21 22:42:00,
2013-01-21 15:53:00,41.0,14.0,-100.00,SE,135,0.0,4.0,32,0.00,,,-99.99,,2013-01-21 22:53:00,
2013-01-21 16:02:00,40.0,13.0,-100.00,SW,225,0.0,2.0,32,0.00,,,-99.99,,2013-01-21 23:02:00,
2013-01-21 16:12:00,38.0,12.0,-100.00,SE,130,0.0,0.0,33,0.00,,,-99.99,,2013-01-21 23:12:00,
2013-01-21 16:22:00,36.0,11.0,-100.00,SE,140,3.0,4.0,34,0.00,,,-99.99,,2013-01-21 23:22:00,
2013-01-21 16:32:00,35.0,11.0,-100.00,SE,135,2.0,4.0,36,0.00,,,-99.99,,2013-01-21 23:32:00,
2013-01-21 16:42:00,34.0,11.0,-100.00,East,90,0.0,2.0,37,0.00,,,-99.99,,2013-01-21 23:42:00,
2013-01-21 16:52:00,33.0,11.0,-100.00,SE,135,0.0,4.0,39,0.00,,,-99.99,,2013-01-21 23:52:00,
2013-01-21 17:02:00,32.0,11.0,-100.00,ESE,120,2.0,5.0,41,0.00,,,-99.99,,2013-01-22 00:02:00,
2013-01-21 17:11:00,31.0,11.0,-100.00,SE,135,6.0,6.0,42,0.00,,,-99.99,,2013-01-22 00:11:00,
2013-01-21 17:22:00,29.0,11.0,-100.00,SE,135,6.0,6.0,44,0.00,,,-99.99,,2013-01-22 00:22:00,
2013-01-21 17:32:00,28.0,10.0,-100.00,SE,140,2.0,6.0,46,0.00,,,-99.99,,2013-01-22 00:32:00,
2013-01-21 17:42:00,28.0,10.0,-100.00,SE,140,2.0,4.0,48,0.00,,,-99.99,,2013-01-22 00:42:00,
2013-01-21 17:52:00,28.0,12.0,-100.00,SE,145,4.0,6.0,50,0.00,,,-99.99,,2013-01-22 00:52:00,
2013-01-21 18:02:00,26.0,10.0,-100.00,SE,135,4.0,6.0,51,0.00,,,-99.99,,2013-01-22 01:02:00,
2013-01-21 18:12:00,25.0,10.0,-100.00,NE,50,1.0,4.0,52,0.00,,,-99.99,,2013-01-22 01:12:00,
2013-01-21 18:22:00,26.0,11.0,-100.00,NNE,20,0.0,4.0,54,0.00,,,-99.99,,2013-01-22 01:22:00,
2013-01-21 18:32:00,25.0,11.0,-100.00,NE,35,0.0,2.0,54,0.00,,,-99.99,,2013-01-22 01:32:00,
2013-01-21 18:42:00,25.0,11.0,-100.00,East,95,0.0,2.0,55,0.00,,,-99.99,,2013-01-22 01:42:00,
2013-01-21 18:52:00,27.0,13.0,-100.00,ESE,120,5.0,12.0,55,0.00,,,-99.99,,2013-01-22 01:52:00,
2013-01-21 19:02:00,26.0,12.0,-100.00,SW,220,1.0,7.0,54,0.00,,,-99.99,,2013-01-22 02:02:00,
2013-01-21 19:12:00,24.0,10.0,-100.00,ENE,70,0.0,2.0,54,0.00,,,-99.99,,2013-01-22 02:12:00,
2013-01-21 19:22:00,24.0,10.0,-100.00,NNE,30,0.0,4.0,54,0.00,,,-99.99,,2013-01-22 02:22:00,
2013-01-21 19:32:00,24.0,10.0,-100.00,SE,135,4.0,11.0,55,0.00,,,-99.99,,2013-01-22 02:32:00,
2013-01-21 19:42:00,24.0,10.0,-100.00,NNE,20,0.0,12.0,55,0.00,,,-99.99,,2013-01-22 02:42:00,
2013-01-21 19:52:00,23.0,9.0,-100.00,ESE,120,2.0,6.0,55,0.00,,,-99.99,,2013-01-22 02:52:00,
2013-01-21 20:02:00,24.0,10.0,-100.00,SE,130,5.0,7.0,56,0.00,,,-99.99,,2013-01-22 03:02:00,
2013-01-21 20:12:00,22.0,9.0,-100.00,West,260,0.0,5.0,56,0.00,,,-99.99,,2013-01-22 03:12:00,
2013-01-21 20:22:00,21.0,8.0,-100.00,SW,215,1.0,5.0,56,0.00,,,-99.99,,2013-01-22 03:22:00,
2013-01-21 20:32:00,21.0,8.0,-100.00,SE,145,0.0,6.0,57,0.00,,,-99.99,,2013-01-22 03:32:00,
2013-01-21 20:42:00,21.0,9.0,-100.00,ESE,115,0.0,6.0,57,0.00,,,-99.99,,2013-01-22 03:42:00,
2013-01-21 20:52:00,21.0,8.0,-100.00,WNW,290,0.0,6.0,57,0.00,,,-99.99,,2013-01-22 03:52:00,
2013-01-21 21:02:00,20.0,7.0,-100.00,North,5,0.0,3.0,57,0.00,,,-99.99,,2013-01-22 04:02:00,
2013-01-21 21:11:00,20.0,7.0,-100.00,ESE,115,0.0,3.0,58,0.00,,,-99.99,,2013-01-22 04:11:00,
2013-01-21 21:22:00,19.0,7.0,-100.00,South,175,0.0,2.0,59,0.00,,,-99.99,,2013-01-22 04:22:00,
2013-01-21 21:32:00,19.0,7.0,-100.00,West,275,0.0,0.0,59,0.00,,,-99.99,,2013-01-22 04:32:00,
2013-01-21 21:42:00,18.0,6.0,-100.00,NNE,25,0.0,0.0,60,0.00,,,-99.99,,2013-01-22 04:42:00,
2013-01-21 21:52:00,17.0,6.0,-100.00,WSW,245,0.0,0.0,60,0.00,,,-99.99,,2013-01-22 04:52:00,
2013-01-21 22:03:00,17.0,6.0,-100.00,East,80,0.0,0.0,61,0.00,,,-99.99,,2013-01-22 05:03:00,
2013-01-21 22:12:00,17.0,6.0,-100.00,NNE,20,0.0,0.0,62,0.00,,,-99.99,,2013-01-22 05:12:00,
2013-01-21 22:22:00,17.0,6.0,-100.00,NNE,20,0.0,2.0,62,0.00,,,-99.99,,2013-01-22 05:22:00,
2013-01-21 22:42:00,16.0,5.0,-100.00,NNE,25,1.0,2.0,63,0.00,,,-99.99,,2013-01-22 05:42:00,
2013-01-21 22:52:00,16.0,6.0,-100.00,ESE,120,0.0,0.0,64,0.00,,,-99.99,,2013-01-22 05:52:00,
2013-01-21 23:02:00,15.0,6.0,-100.00,NW,305,0.0,2.0,64,0.00,,,-99.99,,2013-01-22 06:02:00,
2013-01-21 23:11:00,15.0,5.0,-100.00,NE,45,2.0,4.0,64,0.00,,,-99.99,,2013-01-22 06:11:00,
2013-01-21 23:22:00,15.0,6.0,-100.00,SE,135,2.0,2.0,65,0.00,,,-99.99,,2013-01-22 06:22:00,
2013-01-21 23:32:00,15.0,6.0,-100.00,SE,145,3.0,4.0,65,0.00,,,-99.99,,2013-01-22 06:32:00,
2013-01-21 23:42:00,15.0,5.0,-100.00,SE,130,4.0,7.0,65,0.00,,,-99.99,,2013-01-22 06:42:00,
2013-01-21 23:52:00,15.0,6.0,-100.00,SSE,160,4.0,9.0,65,0.00,,,-99.99,,2013-01-22 06:52:00,